This is the latest recevied weather packets stored in our database for station/object KC9DRE. If no packets are shown the sender has not sent any weather packets the latest 10 day(s).
| Time | Temp. | Humidity | Pressure | Rain* | Wind** | Luminosity | Snow |
|---|---|---|---|---|---|---|---|
| 1777676458 | 13.89° C | 49% | 1015.7 hPa | 0 mm | - | 161 W/m² | - |
| 1777676156 | 13.89° C | 50% | 1015.8 hPa | 0 mm | - | 87 W/m² | - |
| 1777675852 | 14.44° C | 49% | 1015.7 hPa | 0 mm | - | 67 W/m² | - |
| 1777675549 | 14.44° C | 45% | 1015.7 hPa | 0 mm | - | 70 W/m² | - |
| 1777675246 | 14.44° C | 48% | 1015.3 hPa | 0 mm | - | 145 W/m² | - |
| 1777674943 | 14.44° C | 47% | 1015.4 hPa | 0 mm | - | 104 W/m² | - |
| 1777674639 | 15.56° C | 45% | 1015.3 hPa | 0 mm | - | 95 W/m² | - |
| 1777674335 | 15.56° C | 45% | 1015.3 hPa | 0 mm | - | 291 W/m² | - |
| 1777674032 | 15.56° C | 46% | 1015.5 hPa | 0 mm | - | 311 W/m² | - |
| 1777673729 | 16.11° C | 42% | 1015.4 hPa | 0 mm | - | 313 W/m² | - |
| 1777673427 | 16.11° C | 41% | 1015.5 hPa | 0 mm | - | 336 W/m² | - |
| 1777673124 | 16.11° C | 42% | 1015.3 hPa | 0 mm | - | 359 W/m² | - |
| 1777672821 | 16.11° C | 45% | 1015.3 hPa | 0 mm | - | 350 W/m² | - |
| 1777672517 | 16.67° C | 39% | 1015.4 hPa | 0 mm | - | 120 W/m² | - |
| 1777672212 | 16.67° C | 40% | 1015.4 hPa | 0 mm | - | 394 W/m² | - |
| 1777671908 | 16.67° C | 42% | 1015.1 hPa | 0 mm | - | 389 W/m² | - |
| 1777671619 | 16.67° C | 40% | 1015.1 hPa | 0 mm | - | 327 W/m² | - |
| 1777671301 | 16.67° C | 40% | 1015.4 hPa | 0 mm | - | 424 W/m² | - |
| 1777671001 | 16.67° C | 42% | 1015.2 hPa | 0 mm | - | 426 W/m² | - |
| 1777670698 | 16.67° C | 40% | 1015.2 hPa | 0 mm | - | 458 W/m² | - |
| 1777670396 | 16.67° C | 40% | 1015.3 hPa | 0 mm | - | 479 W/m² | - |
| 1777670093 | 16.11° C | 45% | 1015.2 hPa | 0 mm | - | 408 W/m² | - |
| 1777669790 | 15.56° C | 44% | 1015.3 hPa | 0 mm | - | 495 W/m² | - |
| 1777669487 | 16.67° C | 40% | 1015.4 hPa | 0 mm | - | 110 W/m² | - |
| 1777669183 | 15.56° C | 46% | 1015.5 hPa | 0 mm | - | 530 W/m² | - |
* Rain latest hour (hover to see other rain measurements)
** Current wind speed in m/s (hover to see current wind gust speed)